Location: Marsån
(66.4167°N, 22.2833°E)
Time: 08:46:24
(UTC+00:00)

Cosmos 1538 Rocket - Pass Details

Date: 24 February 2024
Orbit: 750 x 790 km, 74.0° (Epoch: 20 April)

Event Time Altitude Azimuth Distance (km) Brightness Sun altitude
Rises 18:51:02 0° 317° (NW) 3,294 8.5 -21.0°
Reaches altitude 10° 18:53:25 10° 317° (NW) 2,366 7.5 -21.2°
Maximum altitude 18:58:49 80° 231° (SW) 811 4.1 -21.7°
Enters shadow 19:00:35 44° 152° (SSE) 1,089 4.4 -21.8°
